Weather History for KNZY - November, 2012

Change the Weather History Date:

Monday, November 26, 2012

  Actual Average Record
Temperature  
Mean Temperature 60 °F -  
Max Temperature 64 °F 63 °F 79 °F (2011)
Min Temperature 57 °F 48 °F 43 °F (2010)
Degree Days  
Heating Degree Days 4    
Growing Degree Days 10 (Base 50)    
Moisture  
Dew Point 51 °F    
Average Humidity 71    
Maximum Humidity 81    
Minimum Humidity 61    
Precipitation  
Precipitation 0.00 in - - ()
Sea Level Pressure  
Sea Level Pressure 30.04 in    
Wind  
Wind Speed 4 mph (WNW)    
Max Wind Speed 9 mph    
Max Gust Speed -    
Visibility 8 miles    
Events      
Averages and records for this station are not official NWS values.
T = Trace of Precipitation, MM = Missing Value Source: NWS Daily Summary

Daily Weather History Graph

Daily Weather History Graph

Search for Another Location

Airport or City:

Trip Planner

Search our weather history database for the weather conditions in past years. The results will help you decide how hot, cold, wet, or windy it might be!

Date:

Astronomy

Nov. 26, 2012 Rise Set
Actual Time 6:29 AM PST 4:43 PM PST
Civil Twilight 6:02 AM PST 5:09 PM PST
Nautical Twilight 5:32 AM PST 5:40 PM PST
Astronomical Twilight 5:02 AM PST 6:09 PM PST
Moon 3:36 PM PST (11/26) 4:47 AM PST (11/26)
Length of Visible Light 11h 07m
Length of Day
10h 14m
Waxing Gibbous, 97% of the Moon is Illuminated
Nov 26
Waxing Gibbous
Nov 28
Full
Dec 6
Last Quarter
Dec 13
New
Dec 19
First Quarter

Hourly Weather History & Observations

Time (PST) Temp. Dew Point Humidity Pressure Visibility Wind Dir Wind Speed Gust Speed Precip Events Conditions
12:52 AM 61.0 °F 53.1 °F 75% 29.99 in 8.0 mi SSW 5.8 mph - N/A   Overcast
1:52 AM 61.0 °F 52.0 °F 72% 30.01 in 8.0 mi SSW 4.6 mph - N/A   Overcast
2:52 AM 61.0 °F 52.0 °F 72% 30.01 in 8.0 mi Calm Calm - N/A   Overcast
3:52 AM 61.0 °F 51.1 °F 70% 30.01 in 8.0 mi Calm Calm - N/A   Overcast
4:52 AM 61.0 °F 51.1 °F 70% 30.00 in 7.0 mi East 5.8 mph - N/A   Mostly Cloudy
5:52 AM 59.0 °F 50.0 °F 72% 30.00 in 6.0 mi East 3.5 mph - N/A   Haze
6:52 AM 59.0 °F 51.1 °F 75% 30.03 in 5.0 mi Calm Calm - N/A   Haze
7:52 AM 61.0 °F 52.0 °F 72% 30.05 in 6.0 mi Calm Calm - N/A   Haze
8:52 AM 62.1 °F 51.1 °F 67% 30.07 in 7.0 mi SSE 4.6 mph - N/A   Mostly Cloudy
9:52 AM 63.0 °F 51.1 °F 65% 30.08 in 8.0 mi Calm Calm - N/A   Mostly Cloudy
10:52 AM 64.0 °F 52.0 °F 65% 30.06 in 9.0 mi South 4.6 mph - N/A   Scattered Clouds
11:52 AM 64.9 °F 52.0 °F 63% 30.04 in 9.0 mi West 9.2 mph - N/A   Scattered Clouds
12:52 PM 64.9 °F 51.1 °F 61% 30.03 in 10.0 mi West 6.9 mph - N/A   Scattered Clouds
1:52 PM 64.0 °F 51.1 °F 63% 30.02 in 10.0 mi West 8.1 mph - N/A   Mostly Cloudy
2:52 PM 64.0 °F 51.1 °F 63% 30.02 in 10.0 mi WNW 9.2 mph - N/A   Mostly Cloudy
3:52 PM 62.1 °F 51.1 °F 67% 30.03 in 10.0 mi NW 9.2 mph - N/A   Mostly Cloudy
4:52 PM 61.0 °F 51.1 °F 70% 30.04 in 10.0 mi NW 8.1 mph - N/A   Mostly Cloudy
5:52 PM 60.1 °F 52.0 °F 75% 30.06 in 10.0 mi NW 4.6 mph - N/A   Mostly Cloudy
6:52 PM 60.1 °F 52.0 °F 75% 30.07 in 10.0 mi NNW 4.6 mph - N/A   Mostly Cloudy
7:52 PM 60.1 °F 52.0 °F 75% 30.08 in 10.0 mi Calm Calm - N/A   Mostly Cloudy
8:52 PM 57.9 °F 51.1 °F 78% 30.09 in 8.0 mi Calm Calm - N/A   Mostly Cloudy
9:52 PM 57.9 °F 51.1 °F 78% 30.09 in 10.0 mi NNE 3.5 mph - N/A   Mostly Cloudy
10:52 PM 57.9 °F 51.1 °F 78% 30.09 in 7.0 mi North 3.5 mph - N/A   Mostly Cloudy
11:52 PM 57.0 °F 51.1 °F 81% 30.09 in 7.0 mi NNW 3.5 mph - N/A   Mostly Cloudy